Weather History for Montpelier, VT

Change the Weather History Date:

Wednesday, March 5, 2014

  Actual Average Record
Temperature  
Mean Temperature 10 °F 25 °F  
Max Temperature 19 °F 35 °F 60 °F (1974)
Min Temperature 1 °F 14 °F -3 °F (1967)
Degree Days  
Heating Degree Days 55 40  
Month to date heating degree days 284 205  
Since 1 July heating degree days 6449 6113  
Cooling Degree Days 0 0  
Month to date cooling degree days 0 0  
Year to date cooling degree days 0 0  
Moisture  
Dew Point 5 °F    
Average Humidity 73    
Maximum Humidity 92    
Minimum Humidity 53    
Precipitation  
Precipitation 0.01 in 0.07 in 1.46 in (1964)
Month to date precipitation 0.01 0.36  
Year to date precipitation 4.32 4.85  
Sea Level Pressure  
Sea Level Pressure 30.37 in    
Wind  
Wind Speed 4 mph (NNW)    
Max Wind Speed 16 mph    
Max Gust Speed 23 mph    
Visibility 6 miles    
Events Snow    
T = Trace of Precipitation, MM = Missing Value Source: NWS Daily Summary

Daily Weather History Graph

Daily Weather History Graph

Search for Another Location

Airport:

Trip Planner

Search our weather history database for the weather conditions in past years. The results will help you decide how hot, cold, wet, or windy it might be!

Date:

Astronomy

Mar. 05, 2014 Rise Set
Actual Time 6:20 AM EST 5:43 PM EST
Civil Twilight 5:51 AM EST 6:12 PM EST
Nautical Twilight 5:18 AM EST 6:46 PM EST
Astronomical Twilight 4:44 AM EST 7:19 PM EST
Moon 8:33 AM EST (3/5) 11:01 PM EST (3/5)
Length of Visible Light 12h 21m
Length of Day
11h 23m
Waxing Crescent, 23% of the Moon is Illuminated
Mar 5
Waxing Crescent
Mar 8
First Quarter
Mar 16
Full
Mar 23
Last Quarter
Mar 30
New

Hourly Weather History & Observations

Time (EST) Temp. Windchill Dew Point Humidity Pressure Visibility Wind Dir Wind Speed Gust Speed Precip Events Conditions
12:51 AM 10.9 °F - 8.1 °F 88% 30.31 in 6.0 mi Calm Calm - 0.00 in Snow Light Snow
1:08 AM 10.9 °F - 8.1 °F 88% 30.23 in 2.0 mi Calm Calm - 0.00 in Snow Light Snow
1:47 AM 10.4 °F - 8.6 °F 92% 30.24 in 1.8 mi Calm Calm - 0.00 in Snow Light Snow
1:51 AM 10.9 °F - 8.1 °F 88% 30.32 in 1.8 mi Calm Calm - 0.00 in Snow Light Snow
1:58 AM 10.9 °F - 8.1 °F 88% 30.24 in 1.5 mi Calm Calm - 0.00 in Snow Light Snow
2:23 AM 10.0 °F - 8.1 °F 92% 30.24 in 2.5 mi Calm Calm - 0.00 in Snow Light Snow
2:47 AM 10.4 °F - 8.6 °F 92% 30.23 in 5.0 mi Calm Calm - 0.01 in Snow Light Snow
2:51 AM 10.0 °F - 8.1 °F 92% 30.31 in 6.0 mi Calm Calm - 0.01 in   Overcast
3:51 AM 10.0 °F - 8.1 °F 92% 30.31 in 5.0 mi Calm Calm - 0.00 in Snow Light Snow
4:51 AM 10.0 °F - 7.0 °F 87% 30.32 in 5.0 mi Calm Calm - 0.00 in   Overcast
5:51 AM 9.0 °F - 7.0 °F 92% 30.33 in 4.0 mi Calm Calm - 0.00 in Snow Light Snow
6:51 AM 9.0 °F - 6.1 °F 88% 30.34 in 4.0 mi Calm Calm - 0.00 in   Overcast
7:51 AM 10.0 °F - 6.1 °F 84% 30.36 in 2.5 mi Calm Calm - 0.00 in Snow Light Snow
8:37 AM 10.9 °F - 6.1 °F 81% 30.28 in 4.0 mi Calm Calm - 0.00 in   Haze
8:51 AM 10.9 °F - 7.0 °F 84% 30.37 in 5.0 mi Calm Calm - 0.00 in   Overcast
9:51 AM 14.0 °F - 6.1 °F 71% 30.38 in 10.0 mi Calm Calm - N/A   Overcast
10:51 AM 15.1 °F - 6.1 °F 68% 30.38 in 9.0 mi Calm Calm - N/A   Overcast
11:20 AM 15.1 °F - 6.1 °F 68% 30.30 in 9.0 mi Calm Calm - 0.00 in   Overcast
11:46 AM 15.8 °F - 6.8 °F 68% 30.30 in 7.0 mi Calm Calm - 0.00 in   Overcast
11:51 AM 16.0 °F 10.4 °F 6.1 °F 65% 30.38 in 8.0 mi NW 3.5 mph - 0.00 in   Overcast
12:27 PM 16.0 °F - 7.0 °F 68% 30.29 in 2.5 mi Calm Calm - 0.00 in Snow Light Snow
12:36 PM 17.1 °F 7.6 °F 8.1 °F 68% 30.29 in 4.0 mi North 6.9 mph - 0.00 in Snow Light Snow
12:51 PM 16.0 °F 7.4 °F 7.0 °F 68% 30.37 in 4.0 mi NNE 5.8 mph - 0.00 in Snow Light Snow
1:06 PM 16.0 °F 7.4 °F 8.1 °F 71% 30.28 in 3.0 mi North 5.8 mph - 0.00 in Snow Light Snow
1:32 PM 17.1 °F 7.6 °F 7.0 °F 65% 30.29 in 10.0 mi North 6.9 mph - 0.00 in   Overcast
1:51 PM 17.1 °F 3.6 °F 8.1 °F 68% 30.38 in 2.5 mi NW 12.7 mph 18.4 mph 0.00 in Snow Light Snow
1:59 PM 17.1 °F 4.3 °F 10.0 °F 74% 30.29 in 4.0 mi WNW 11.5 mph - 0.00 in Snow Light Snow
2:42 PM 17.1 °F 5.8 °F 8.1 °F 68% 30.31 in 7.0 mi NW 9.2 mph - 0.00 in   Overcast
2:51 PM 18.0 °F 6.9 °F 6.1 °F 60% 30.39 in 9.0 mi WNW 9.2 mph - 0.00 in   Overcast
2:58 PM 18.0 °F 4.2 °F 5.0 °F 57% 30.31 in 10.0 mi WNW 13.8 mph 18.4 mph N/A   Overcast
3:51 PM 16.0 °F 2.9 °F 3.9 °F 59% 30.42 in 10.0 mi NNW 11.5 mph - N/A   Overcast
4:51 PM 15.1 °F 3.3 °F 1.9 °F 56% 30.45 in 10.0 mi NNW 9.2 mph - N/A   Overcast
5:22 PM 14.0 °F -0.2 °F 3.0 °F 62% 30.39 in 10.0 mi NNE 12.7 mph - N/A   Overcast
5:51 PM 12.9 °F -0.2 °F 1.9 °F 62% 30.49 in 10.0 mi North 10.4 mph - N/A   Overcast
6:51 PM 10.9 °F -1.8 °F 1.0 °F 64% 30.53 in 10.0 mi North 9.2 mph - N/A   Partly Cloudy
7:51 PM 8.1 °F -0.5 °F -2.0 °F 64% 30.56 in 10.0 mi NW 4.6 mph - N/A   Clear
8:51 PM 7.0 °F -3.3 °F -6.0 °F 55% 30.58 in 10.0 mi North 5.8 mph - N/A   Clear
9:51 PM 5.0 °F -2.1 °F -7.1 °F 58% 30.60 in 10.0 mi NNE 3.5 mph - N/A   Clear
10:51 PM 3.0 °F -6.4 °F -7.1 °F 63% 30.61 in 10.0 mi NNW 4.6 mph - N/A   Clear
11:51 PM 1.0 °F - -8.0 °F 66% 30.63 in 10.0 mi Calm Calm - N/A   Clear